Погода в Аки-Юрте

Россия / Республика Ингушетия     43°30′27″N   44°51′42″E
темп.,
°C
ветер,
м/с
пор.,
м/с
влажн.,
%
обл.,
%
осадки,
мм/ч
давл.,
гПа
погр.,
м
15 августа, пн
пн1500:00+24ююз11540 0.0 100611
03:00+22юз11580 0.0 100511
06:00+22ююз00635 0.0 100611
09:00+28с21460 0.0 1006558
12:00+34св33300 0.0 10041357
15:00+37всв22210 0.0 10021869
18:00+36св34210 0.0 1002188
21:00+26вюв22380 0.0 100528
16 августа, вт
вт1600:00+24юз01470 0.0 100511
03:00+23з33510 0.0 100638
06:00+23зюз34500 0.0 100797
09:00+30зсз55350 0.0 1007652
12:00+35сз54260 0.0 10071471
15:00+38сз33210 0.0 10062263
18:00+36ссз23240 0.0 1006218
21:00+29юз22380 0.0 100816
17 августа, ср
ср1700:00+27зюз34440 0.0 100957
03:00+25зюз34510 0.0 101052
06:00+25зюз33530 0.0 101063
09:00+30сз33420 0.0 1010780
12:00+34ссв32310 0.0 10081623
15:00+36св22260 0.0 10062118
18:00+35ссз23310 0.0 100667
21:00+29ю11380 0.0 100611
18 августа, чт
чт1800:00+27юз22460 0.0 100615
03:00+25зюз33463 0.0 100739
06:00+24юз34480 0.0 1008104
09:00+30з55410 0.0 1007613
12:00+35ссз22290 0.0 10061755
15:00+37ссз22244 0.0 10042349
18:00+35зсз12290 0.0 100433
21:00+28ю2239100 0.0 100516
19 августа, пт
пт1900:00+27зюз2345100 0.0 100652
03:00+26з3653100 0.0 1006204
06:00+22зюз476081 0.0 1008252
09:00+28зсз553816 0.0 1008728
12:00+33ссз2127100 0.0 10071428
15:00+34в232797 0.0 10051749
18:00+33всв57252 0.0 1005424
21:00+25вюв2234100 0.0 100623